[Date Prev][Date Next][Thread Prev][Thread Next] - [Date Index][Thread Index][Author Index]
Re: [amsat-bb] Current Mir 2 line Kep source?
At 10:37 AM 2/22/99 -0500, pmarkham wrote:
> Is there some other source that is updated more often? Ron Parises's MIR
Keps post to amsat-bb is sorely missed.
Somebody should have said something! I didn't realize the program wasn't
running. Anyway, here is a set for today and the automatic 0600 EST posts
should resume tomorrow morning.
Ron Parise, wa4sir
Mir
1 16609U 86017A 99 53.53490713 0.00025429 00000-0 19951-3 0 2513
2 16609 51.6604 211.3865 0013361 162.4537 197.7116 15.71268373743362
Satellite: Mir
Catalog number: 16609
Epoch time: 99053.53490713 (22 FEB 99 12:50:15.98 UTC)
Element set: NORAD-251
Inclination: 51.6604 deg
RA of node: 211.3865 deg Mir Space Station
Eccentricity: 0.0013361 Orbital Elements
Arg of perigee: 162.4537 deg
Mean anomaly: 197.7116 deg
Mean motion: 15.71268373 rev/day Semi-major Axis: 6733.4032 Km
Decay rate: 0.25E-03 rev/day*2 Apogee Alt: 364.01 Km
Epoch rev: 74336 Perigee Alt: 346.02 Km
Ron Parise, WA4SIR
Goddard Space Flight Center
----
Via the sarex mailing list at AMSAT.ORG courtesy of AMSAT-NA.
To unsubscribe, send "unsubscribe sarex" to Majordomo@amsat.org
AMSAT Home